Location: Houston
(29.7630°N, 95.3630°W)
Time: 14:03:21
(UTC-05:00)

Amateur Radio Satellites - All Passes

Search period start: 17 April 2014 13:33
Search period end: 18 April 2014 13:33
Location: Houston, 29.7630°N, 95.3630°W

Satellite Date Start Highest point End Downlink Frequencies (MHz)
Time Altitude Azimuth
AO-27 17 Apr 13:53:16 13:57:14 23° 69° (ENE) 14:01:12 436.795 MHz FM
ITAMSAT 1 17 Apr 14:04:06 14:08:29 29° 71° (ENE) 14:12:53 435.822 SSB
Oscar 19 17 Apr 14:13:14 14:18:20 73° 76° (ENE) 14:23:28 437.125 CW, 437.150 USB
KITSAT 1 17 Apr 14:15:24 14:23:18 59° 249° (WSW) 14:31:08 435.175 FM
Oscar 16 17 Apr 14:21:05 14:26:12 85° 257° (WSW) 14:31:22 437.025 USB, Beacon 2401.1428
AO-Echo 17 Apr 14:33:10 14:38:11 46° 74° (ENE) 14:43:08 ?
ISS 17 Apr 14:45:55 14:46:51 11° 125° (SE) 14:47:48 145.800 FM
Uribyol 2 17 Apr 14:52:11 14:57:21 82° 257° (WSW) 15:02:32 436.500 FM
PANSAT 17 Apr 15:01:45 15:04:55 24° 201° (SSW) 15:08:04 not established
Gurwin Techsat 1B 17 Apr 15:11:26 15:16:20 39° 72° (ENE) 15:21:15 435.225 FM
RS-15 17 Apr 15:23:48 15:31:21 20° 42° (NE) 15:38:57 29.354 - 29.394 USB, Beacon 29.352 USB
JAS-1B 17 Apr 15:29:28 15:36:26 29° 70° (ENE) 15:42:31 435.800 - 435.900 CW/SSB
AO-27 17 Apr 15:31:53 15:36:30 32° 262° (W) 15:41:09 436.795 MHz FM
OPAL 17 Apr 15:39:26 15:44:25 45° 102° (ESE) 15:49:23 ?
ITAMSAT 1 17 Apr 15:43:38 15:47:52 25° 263° (W) 15:52:07 435.822 SSB
AO-7 17 Apr 15:56:54 16:03:41 29° 63° (ENE) 16:10:27 29.400 - 29.500 MHz
TMSAT-1 17 Apr 16:00:36 16:05:54 88° 77° (ENE) 16:11:13 436.925 FM
AO-Echo 17 Apr 16:13:50 16:17:02 16° 265° (W) 16:20:13 ?
ISS 17 Apr 16:20:04 16:23:15 43° 317° (NW) 16:26:28 145.800 FM
Uosat F 17 Apr 16:28:20 16:33:16 59° 74° (ENE) 16:38:12 435.120 FM
SO-50 17 Apr 16:32:35 16:37:01 66° 298° (WNW) 16:41:29 436.795 FM
Gurwin Techsat 1B 17 Apr 16:52:43 16:56:21 19° 265° (W) 17:00:01 435.225 FM
JAS-1B 17 Apr 17:18:20 17:26:44 48° 259° (WSW) 17:33:53 435.800 - 435.900 CW/SSB
OPAL 17 Apr 17:19:33 17:22:53 17° 294° (WNW) 17:26:13 ?
UOSAT-12 17 Apr 17:28:50 17:32:02 19° 109° (ESE) 17:35:16 437.025 FM, 437.400 FM
RS-15 17 Apr 17:34:17 17:45:20 85° 64° (ENE) 17:56:45 29.354 - 29.394 USB, Beacon 29.352 USB
AO-7 17 Apr 17:48:03 17:56:00 51° 257° (WSW) 18:04:00 29.400 - 29.500 MHz
Uosat F 17 Apr 18:10:58 18:12:18 11° 266° (W) 18:13:39 435.120 FM
Hamsat 17 Apr 19:00:55 19:05:06 87° 260° (W) 19:09:19 145.90 MHz
UOSAT-12 17 Apr 19:07:52 19:11:54 32° 303° (WNW) 19:16:01 437.025 FM, 437.400 FM
JAS-2 17 Apr 19:27:51 19:33:53 54° 75° (ENE) 19:39:17 435.800 - 435.900 CW/SSB, 435.910 FM
RS-15 17 Apr 19:49:42 19:56:22 18° 258° (WSW) 20:03:14 29.354 - 29.394 USB, Beacon 29.352 USB
STRAND 1 17 Apr 19:52:42 19:57:46 69° 102° (ESE) 20:02:50 ?
SO-67 17 Apr 20:12:21 20:15:47 61° 260° (W) 20:19:15 435.3500 MHz FM
HO-68 17 Apr 20:39:08 20:44:31 24° 64° (ENE) 20:49:54 435.675 MHz FM
JAS-2 17 Apr 21:15:32 21:19:00 16° 263° (W) 21:22:19 435.800 - 435.900 CW/SSB, 435.910 FM
Saudisat 1A 17 Apr 21:15:48 21:19:59 42° 60° (ENE) 21:24:07 436.775 MHz
STRAND 1 17 Apr 21:35:32 21:36:19 10° 295° (WNW) 21:37:06 ?
Oscar 11 17 Apr 22:06:06 22:10:08 41° 74° (ENE) 22:14:10 145.825 FM, Beacon 2401.500 USB
HO-68 17 Apr 22:24:50 22:31:43 52° 258° (WSW) 22:38:39 435.675 MHz FM
MaSat-1 17 Apr 22:39:05 22:42:05 32° 292° (WNW) 22:44:41 437.345 MHz
ISS 17 Apr 22:54:51 22:56:26 13° 35° (NE) 22:58:00 145.800 FM
Saudisat 1A 17 Apr 22:57:14 22:59:09 13° 252° (WSW) 23:01:04 436.775 MHz
FUNcube-1 17 Apr 23:26:35 23:30:50 70° 259° (W) 23:35:01 145.950 - 145.970 MHz USB
Oscar 11 17 Apr 23:44:55 23:46:26 12° 266° (W) 23:47:58 145.825 FM, Beacon 2401.500 USB
Sapphire 18 Apr 00:20:04 00:24:02 21° 106° (ESE) 00:28:01 437.095 MHz 1200 baud AX-25 AFSK
ISS 18 Apr 00:30:07 00:33:24 53° 229° (SW) 00:36:39 145.800 FM
PCSat 18 Apr 01:03:32 01:08:51 65° 111° (ESE) 01:14:12 145.825 MHz
SO-50 18 Apr 01:10:33 01:14:12 22° 55° (NE) 01:17:53 436.795 FM
Sapphire 18 Apr 02:02:08 02:07:08 38° 299° (WNW) 02:12:09 437.095 MHz 1200 baud AX-25 AFSK
Oscar 10/S400 18 Apr 02:02:33 02:19:19 32° 139° (SE) 02:48:55 145.825 - 145.975 CW/USB, Beacon 145.810 USB
AO-27 18 Apr 02:13:40 02:15:52 13° 94° (E) 02:18:04 436.795 MHz FM
ITAMSAT 1 18 Apr 02:23:53 02:27:08 17° 95° (E) 02:30:21 435.822 SSB
Oscar 19 18 Apr 02:31:11 02:36:07 43° 99° (E) 02:41:02 437.125 CW, 437.150 USB
Oscar 16 18 Apr 02:39:00 02:44:08 57° 101° (E) 02:49:13 437.025 USB, Beacon 2401.1428
KITSAT 1 18 Apr 02:41:54 02:49:12 39° 107° (ESE) 02:56:32 435.175 FM
AO-Echo 18 Apr 02:47:37 02:51:15 22° 96° (E) 02:54:51 ?
OPAL 18 Apr 02:48:45 02:53:22 39° 71° (ENE) 02:58:04 ?
PCSat 18 Apr 02:49:54 02:52:40 14° 307° (NW) 02:55:28 145.825 MHz
SO-50 18 Apr 02:50:38 02:54:45 31° 248° (WSW) 02:58:53 436.795 FM
Uribyol 2 18 Apr 03:11:08 03:16:15 60° 101° (ESE) 03:21:21 436.500 FM
Gurwin Techsat 1B 18 Apr 03:34:09 03:38:34 26° 97° (E) 03:42:57 435.225 FM
UOSAT-12 18 Apr 03:42:44 03:47:11 41° 59° (ENE) 03:51:36 437.025 FM, 437.400 FM
AO-27 18 Apr 03:50:34 03:55:36 54° 286° (WNW) 04:00:38 436.795 MHz FM
ITAMSAT 1 18 Apr 04:01:52 04:06:43 42° 287° (WNW) 04:11:33 435.822 SSB
AO-7 18 Apr 04:08:49 04:10:45 11° 93° (E) 04:12:42 29.400 - 29.500 MHz
Oscar 19 18 Apr 04:11:45 04:15:04 17° 292° (WNW) 04:18:23 437.125 CW, 437.150 USB
Oscar 16 18 Apr 04:20:34 04:22:56 13° 294° (WNW) 04:25:17 437.025 USB, Beacon 2401.1428
TMSAT-1 18 Apr 04:22:45 04:27:58 59° 101° (E) 04:33:10 436.925 FM
AO-Echo 18 Apr 04:26:00 04:29:57 27° 289° (WNW) 04:33:51 ?
OPAL 18 Apr 04:29:07 04:32:20 17° 263° (W) 04:35:35 ?
KITSAT 1 18 Apr 04:37:03 04:44:27 38° 303° (WNW) 04:51:55 435.175 FM
Uosat F 18 Apr 04:42:38 04:46:59 30° 98° (E) 04:51:19 435.120 FM
Uribyol 2 18 Apr 04:53:03 04:55:10 13° 294° (WNW) 04:57:16 436.500 FM
JAS-1B 18 Apr 05:10:14 05:15:53 71° 103° (ESE) 05:21:56 435.800 - 435.900 CW/SSB
Gurwin Techsat 1B 18 Apr 05:13:55 05:18:24 29° 289° (WNW) 05:22:52 435.225 FM
UOSAT-12 18 Apr 05:24:13 05:26:57 15° 252° (WSW) 05:29:40 437.025 FM, 437.400 FM
RS-15 18 Apr 05:42:08 05:49:28 20° 102° (ESE) 05:56:36 29.354 - 29.394 USB, Beacon 29.352 USB
AO-7 18 Apr 05:55:58 06:04:19 82° 106° (ESE) 06:12:40 29.400 - 29.500 MHz
TMSAT-1 18 Apr 06:04:58 06:07:19 13° 294° (WNW) 06:09:39 436.925 FM
Uosat F 18 Apr 06:21:43 06:25:34 23° 291° (WNW) 06:29:24 435.120 FM
Hamsat 18 Apr 06:53:16 06:56:57 27° 97° (E) 07:00:37 145.90 MHz
STRAND 1 18 Apr 07:02:41 07:07:39 53° 74° (ENE) 07:12:37 ?
JAS-1B 18 Apr 07:05:04 07:05:58 10° 296° (WNW) 07:06:53 435.800 - 435.900 CW/SSB
SO-67 18 Apr 07:44:07 07:46:04 14° 95° (E) 07:48:00 435.3500 MHz FM
RS-15 18 Apr 07:49:05 08:00:35 82° 297° (WNW) 08:11:41 29.354 - 29.394 USB, Beacon 29.352 USB
AO-7 18 Apr 07:51:06 07:56:06 18° 302° (WNW) 08:01:07 29.400 - 29.500 MHz
PANSAT 18 Apr 07:58:26 08:00:30 14° 155° (SSE) 08:02:34 not established
JAS-2 18 Apr 08:26:53 08:32:23 82° 103° (ESE) 08:38:32 435.800 - 435.900 CW/SSB, 435.910 FM
Hamsat 18 Apr 08:29:37 08:32:42 19° 289° (WNW) 08:35:48 145.90 MHz
STRAND 1 18 Apr 08:44:49 08:47:02 13° 266° (W) 08:49:16 ?
MaSat-1 18 Apr 08:45:33 08:48:42 51° 250° (WSW) 08:52:29 437.345 MHz
SO-67 18 Apr 09:16:27 09:19:08 21° 287° (WNW) 09:21:48 435.3500 MHz FM
PANSAT 18 Apr 09:36:39 09:40:19 41° 165° (SSE) 09:43:59 not established
HO-68 18 Apr 09:59:05 10:05:51 43° 100° (E) 10:12:34 435.675 MHz FM
PCSat 18 Apr 09:59:10 10:02:20 16° 54° (NE) 10:05:29 145.825 MHz
Oscar 11 18 Apr 10:01:43 10:03:32 12° 94° (E) 10:05:20 145.825 FM, Beacon 2401.500 USB
RS-15 18 Apr 10:07:15 10:14:42 20° 319° (NW) 10:22:04 29.354 - 29.394 USB, Beacon 29.352 USB
Sapphire 18 Apr 10:55:48 11:01:02 47° 63° (ENE) 11:06:13 437.095 MHz 1200 baud AX-25 AFSK
Saudisat 1A 18 Apr 11:16:30 11:20:47 48° 114° (ESE) 11:25:05 436.775 MHz
PANSAT 18 Apr 11:16:33 11:20:24 73° 177° (S) 11:24:15 not established
FUNcube-1 18 Apr 11:21:54 11:25:49 34° 99° (E) 11:29:47 145.950 - 145.970 MHz USB
Oscar 11 18 Apr 11:35:45 11:39:49 40° 286° (WNW) 11:43:53 145.825 FM, Beacon 2401.500 USB
PCSat 18 Apr 11:40:46 11:46:05 58° 249° (WSW) 11:51:21 145.825 MHz
HO-68 18 Apr 11:47:17 11:53:12 29° 294° (WNW) 11:59:08 435.675 MHz FM
KITSAT 1 18 Apr 12:36:30 12:43:58 39° 57° (ENE) 12:51:21 435.175 FM
Sapphire 18 Apr 12:40:42 12:43:59 16° 256° (WSW) 12:47:15 437.095 MHz 1200 baud AX-25 AFSK
PANSAT 18 Apr 12:56:45 13:00:33 57° 190° (S) 13:04:20 not established
Saudisat 1A 18 Apr 12:58:16 13:00:37 14° 308° (NW) 13:02:57 436.775 MHz
FUNcube-1 18 Apr 12:59:34 13:01:55 15° 290° (WNW) 13:04:18 145.950 - 145.970 MHz USB
AO-27 18 Apr 13:27:19 13:28:49 11° 65° (ENE) 13:30:20 436.795 MHz FM
